Total_Precipitation_Accumulation
0.64 0.70 0.77 0.85 0.98 1.04 1.02 1.02 0.95 0.92 0.92 0.90 0.86 0.89 0.86 0.80 0.78 0.80 0.79 0.83 0.88 0.96 0.99 0.98 0.98 1.05 1.11 1.03 1.00 1.01 1.07 1.19 1.25 1.23 1.34 1.35 1.22 1.02 0.97 1.00 0.97 0.97 0.83
0.59 0.67 0.73 0.77 0.88 1.00 0.97 1.00 1.03 1.00 0.95 0.89 0.87 0.92 0.87 0.82 0.83 0.79 0.78 0.81 0.88 0.98 1.10 1.24 1.25 1.19 1.17 1.10 1.12 1.14 1.23 1.40 1.44 1.40 1.40 1.42 1.33 1.19 1.09 0.98 0.86 0.82 0.82
0.55 0.65 0.74 0.72 0.78 0.90 0.96 0.96 0.99 1.01 1.04 1.04 0.97 0.93 0.92 0.92 0.93 0.85 0.81 0.81 0.82 0.86 0.98 1.24 1.44 1.59 1.49 1.30 1.19 1.15 1.23 1.34 1.50 1.44 1.41 1.53 1.51 1.37 1.23 1.03 0.90 0.86 0.73
0.55 0.62 0.70 0.74 0.82 0.91 0.94 0.95 0.98 0.98 1.04 1.10 1.11 1.08 1.05 1.01 0.95 0.92 0.96 0.96 0.92 0.87 0.91 1.00 1.13 1.33 1.49 1.54 1.39 1.26 1.24 1.35 1.50 1.52 1.60 1.81 1.81 1.63 1.36 1.15 1.04 0.92 0.80
0.71 0.81 0.87 0.87 0.92 0.96 0.98 0.98 1.06 1.08 1.10 1.24 1.29 1.26 1.23 1.17 1.05 1.07 1.15 1.07 1.07 1.02 0.98 0.96 0.92 1.00 1.13 1.27 1.32 1.40 1.39 1.37 1.46 1.53 1.73 2.12 2.10 1.80 1.42 1.21 1.16 1.08 0.92
1.01 1.14 1.16 1.19 1.22 1.22 1.20 1.15 1.21 1.29 1.42 1.48 1.44 1.40 1.38 1.25 1.28 1.23 1.21 1.18 1.20 1.18 1.14 1.07 0.98 0.90 0.91 0.98 1.05 1.14 1.29 1.34 1.36 1.43 1.60 1.90 2.06 1.93 1.66 1.43 1.23 1.10 0.99
0.98 1.14 1.23 1.26 1.29 1.35 1.36 1.36 1.38 1.43 1.48 1.52 1.58 1.58 1.55 1.60 1.51 1.25 1.20 1.19 1.23 1.27 1.32 1.32 1.09 0.90 0.94 0.91 0.98 1.00 1.02 1.12 1.23 1.33 1.48 1.68 1.96 2.08 1.92 1.53 1.35 1.22 1.02
1.04 1.16 1.30 1.35 1.41 1.44 1.38 1.32 1.31 1.34 1.34 1.32 1.29 1.28 1.35 1.35 1.29 1.10 1.04 0.99 1.09 1.14 1.14 1.15 1.11 0.98 0.91 0.90 0.92 0.90 0.86 0.87 0.93 1.01 1.15 1.38 1.67 2.00 2.14 1.87 1.65 1.47 1.24
1.18 1.31 1.42 1.49 1.58 1.53 1.41 1.35 1.26 1.24 1.16 1.10 1.08 1.10 1.12 1.17 1.14 1.01 0.97 0.91 0.94 0.95 0.93 0.96 0.99 0.92 0.87 0.73 0.74 0.77 0.76 0.74 0.73 0.77 0.85 1.01 1.26 1.56 1.88 2.00 1.72 1.38 1.22
1.16 1.25 1.36 1.44 1.57 1.60 1.50 1.45 1.39 1.37 1.26 1.20 1.15 1.14 1.14 1.23 1.28 1.09 1.01 0.93 0.95 0.96 1.04 1.07 1.03 0.91 0.81 0.64 0.64 0.70 0.69 0.66 0.69 0.68 0.67 0.72 0.84 1.08 1.43 1.60 1.61 1.34 1.10
0.98 0.98 1.11 1.25 1.39 1.45 1.46 1.44 1.48 1.47 1.39 1.25 1.12 1.05 1.04 1.14 1.26 1.10 0.96 0.88 0.94 1.03 1.12 1.20 1.14 0.96 0.73 0.59 0.54 0.55 0.52 0.54 0.59 0.63 0.63 0.67 0.79 0.95 1.10 1.31 1.45 1.37 1.13
1.02 1.08 1.14 1.19 1.19 1.17 1.23 1.25 1.31 1.38 1.36 1.26 1.10 0.97 0.92 0.90 0.88 0.90 0.76 0.69 0.73 0.85 0.99 1.13 1.14 0.97 0.76 0.60 0.50 0.44 0.41 0.38 0.43 0.50 0.53 0.55 0.61 0.73 0.91 1.16 1.37 1.38 1.23
1.12 1.17 1.20 1.21 1.21 1.21 1.20 1.19 1.19 1.16 1.09 1.00 0.91 0.89 0.88 0.83 0.76 0.69 0.57 0.49 0.51 0.64 0.78 1.03 1.11 0.99 0.86 0.71 0.62 0.55 0.45 0.38 0.40 0.43 0.41 0.41 0.45 0.56 0.77 1.10 1.45 1.57 1.47
1.12 1.05 0.97 0.95 0.96 1.01 1.06 1.07 1.09 1.05 1.00 0.94 0.88 0.89 0.86 0.81 0.73 0.68 0.63 0.53 0.53 0.64 0.71 0.86 0.99 1.02 0.92 0.85 0.75 0.61 0.49 0.44 0.42 0.43 0.43 0.46 0.54 0.65 0.77 0.92 1.24 1.48 1.51
1.14 1.07 1.01 0.98 0.95 0.95 0.98 1.03 1.01 1.00 0.96 0.90 0.87 0.93 0.92 0.88 0.82 0.75 0.74 0.72 0.69 0.73 0.71 0.80 0.93 1.03 1.04 1.00 0.96 0.85 0.73 0.66 0.59 0.56 0.61 0.62 0.67 0.72 0.74 0.83 1.04 1.23 1.24
1.08 0.98 0.97 0.98 0.98 0.96 0.93 0.98 1.02 0.91 0.92 0.88 0.89 0.92 0.94 0.87 0.76 0.63 0.61 0.60 0.55 0.52 0.52 0.67 0.84 1.00 1.12 1.17 1.19 1.13 1.01 0.91 0.81 0.78 0.79 0.76 0.74 0.77 0.78 0.80 0.93 1.08 1.08
1.04 1.00 0.96 0.97 1.01 1.00 0.97 0.96 1.01 0.95 0.81 0.74 0.73 0.70 0.67 0.62 0.52 0.47 0.44 0.43 0.39 0.34 0.36 0.53 0.69 0.83 1.00 1.13 1.17 1.13 1.04 1.01 1.01 1.00 0.98 0.94 0.87 0.85 0.88 0.86 0.87 0.99 1.06
0.99 1.03 1.02 0.98 0.96 0.94 0.92 0.91 0.90 0.93 0.87 0.74 0.63 0.55 0.50 0.44 0.45 0.44 0.39 0.37 0.33 0.29 0.31 0.47 0.60 0.74 0.88 1.05 1.09 1.08 1.10 1.12 1.12 1.08 1.09 1.09 1.06 0.99 0.99 0.96 0.92 0.93 1.02
0.75 0.76 0.76 0.77 0.79 0.79 0.76 0.72 0.69 0.69 0.72 0.75 0.66 0.50 0.47 0.42 0.48 0.53 0.42 0.39 0.41 0.39 0.39 0.45 0.52 0.63 0.80 0.97 1.10 1.14 1.17 1.16 1.15 1.17 1.17 1.17 1.19 1.13 1.02 1.01 1.05 1.03 1.01
0.49 0.56 0.51 0.46 0.48 0.53 0.54 0.55 0.54 0.57 0.64 0.73 0.68 0.52 0.45 0.45 0.58 0.68 0.54 0.55 0.57 0.53 0.53 0.58 0.60 0.67 0.84 1.01 1.13 1.23 1.27 1.24 1.19 1.20 1.21 1.21 1.20 1.18 1.08 1.06 1.14 1.12 1.00
0.34 0.33 0.33 0.26 0.30 0.40 0.47 0.47 0.47 0.54 0.61 0.70 0.65 0.48 0.41 0.47 0.71 0.81 0.75 0.73 0.71 0.67 0.67 0.64 0.59 0.63 0.79 0.96 1.06 1.18 1.27 1.25 1.19 1.16 1.22 1.26 1.19 1.14 1.09 1.11 1.14 1.19 1.14
0.27 0.26 0.24 0.22 0.29 0.35 0.35 0.41 0.51 0.60 0.66 0.70 0.65 0.52 0.49 0.59 0.78 0.85 0.79 0.78 0.77 0.74 0.70 0.67 0.64 0.66 0.78 0.91 0.98 1.08 1.22 1.23 1.20 1.18 1.24 1.32 1.27 1.17 1.13 1.11 1.11 1.19 1.24
0.27 0.26 0.24 0.26 0.32 0.33 0.35 0.43 0.56 0.63 0.65 0.67 0.65 0.64 0.65 0.72 0.78 0.81 0.80 0.76 0.74 0.76 0.78 0.80 0.81 0.80 0.86 0.96 1.00 1.08 1.22 1.22 1.17 1.18 1.23 1.26 1.24 1.19 1.17 1.13 1.11 1.17 1.22
0.22 0.25 0.24 0.24 0.25 0.30 0.36 0.40 0.46 0.51 0.54 0.56 0.59 0.61 0.63 0.66 0.71 0.72 0.73 0.73 0.75 0.77 0.80 0.86 0.88 0.90 0.92 0.96 0.98 0.99 1.07 1.06 1.00 0.98 1.02 1.09 1.10 1.11 1.11 1.09 1.05 1.07 1.11
0.23 0.26 0.25 0.26 0.25 0.27 0.32 0.38 0.44 0.48 0.52 0.52 0.53 0.56 0.59 0.59 0.64 0.69 0.72 0.74 0.74 0.75 0.74 0.75 0.79 0.82 0.81 0.77 0.79 0.82 0.86 0.81 0.75 0.75 0.85 0.95 0.96 0.96 0.95 0.94 0.93 0.98 1.06
0.23 0.27 0.31 0.34 0.33 0.31 0.34 0.41 0.47 0.48 0.50 0.50 0.53 0.56 0.61 0.64 0.64 0.68 0.69 0.69 0.69 0.71 0.68 0.70 0.73 0.68 0.67 0.65 0.62 0.63 0.60 0.57 0.58 0.61 0.66 0.75 0.82 0.83 0.85 0.87 0.85 0.90 0.96